RH
46 40 24 26 31 34 38 44 51 60 66 68 63 66 51 44 41 36 35 38 40 39 41 43 48 54 54 50 52 45 45 48
41 36 32 26 30 36 41 46 47 50 53 61 66 70 69 51 41 38 37 40 42 45 47 50 53 53 55 58 60 64 73 70
32 32 34 35 34 37 40 44 45 52 59 66 71 76 74 66 48 40 40 42 43 45 48 51 57 60 63 68 72 73 80 72
32 33 32 33 34 35 40 44 50 56 62 65 69 70 72 75 68 42 43 45 46 49 53 58 63 66 69 73 76 81 90 88
44 46 45 46 52 45 45 50 57 65 74 76 75 79 87 90 90 46 46 49 52 56 60 63 65 68 72 73 78 97 81 92
50 49 49 54 59 66 64 62 70 78 82 80 74 82 86 97 95 63 49 52 55 59 62 62 64 68 74 88 96 98 93 94
45 54 54 54 63 64 70 74 72 83 89 84 84 82 88 95 85 84 69 63 65 66 66 67 67 73 91 97 98 96 95 84
40 44 47 51 54 54 65 76 75 80 94 90 84 82 98 99 75 76 80 74 67 64 68 86 100 96 96 98 99 98 89 94
36 37 41 52 60 61 66 73 74 80 95 88 80 83 84 93 98 76 74 71 76 78 96 92 82 95 88 98 99 100 96 93
38 39 44 52 55 61 63 73 75 81 78 74 73 74 76 81 83 93 78 73 80 99 90 98 96 95 99 94 100 99 98 89
36 37 40 47 61 71 67 70 61 78 83 71 61 60 65 70 68 70 76 82 97 98 99 99 99 100 100 100 99 96 88 71
31 37 42 35 33 39 29 33 38 49 62 66 63 62 66 71 82 83 91 95 99 99 100 98 99 100 100 100 99 92 73 72
24 30 18 22 34 53 57 55 52 65 63 64 70 76 82 85 94 99 99 100 99 100 100 99 99 100 100 100 97 79 71 76
15 20 22 25 49 59 69 70 71 71 73 64 68 76 89 98 99 99 100 99 100 99 97 98 98 100 100 96 93 86 83 76
23 24 25 38 54 64 70 64 53 45 54 59 68 79 84 88 93 100 100 97 99 98 98 97 98 96 98 95 92 92 79 52
27 26 30 35 55 50 52 52 48 45 57 73 85 91 90 88 99 100 98 97 96 99 97 95 97 98 95 94 89 84 68 53
32 31 34 36 46 52 54 42 36 31 31 39 72 92 77 72 84 99 100 100 100 98 93 94 99 95 92 94 88 74 57 52
37 40 40 37 33 29 30 31 29 29 32 37 42 46 61 74 94 97 99 99 99 98 98 97 96 95 97 95 85 65 48 24
42 35 29 27 27 26 26 30 38 42 43 45 49 60 82 96 99 99 99 98 96 99 99 96 95 98 96 96 90 49 22 19
Wind_Speed
11 14 16 18 17 16 14 13 12 12 11 10 9 7 6 4 4 5 6 8 9 10 12 14 17 19 26 25 27 28 29 31
12 11 14 16 15 14 11 9 7 6 4 4 6 6 6 6 7 7 7 9 11 13 14 16 20 22 24 26 27 27 31 31
11 9 9 10 8 8 9 8 6 5 5 7 8 11 11 11 11 9 10 12 13 15 16 17 20 23 26 29 32 35 35 34
8 6 5 6 7 7 7 9 9 10 11 11 14 15 15 13 13 12 12 16 17 18 18 20 24 28 32 35 38 39 41 39
14 10 7 4 4 11 12 12 13 15 14 14 15 15 15 17 17 18 17 18 21 23 24 26 31 34 38 41 42 42 42 46
17 13 10 10 10 8 11 13 14 13 13 14 14 18 18 18 22 25 22 23 25 27 29 33 37 41 45 47 50 46 43 49
21 21 17 17 15 16 15 17 18 18 17 14 16 18 17 18 20 23 25 26 28 32 35 39 42 45 48 52 50 53 46 46
20 21 22 19 19 19 19 21 20 23 21 18 18 20 20 24 23 24 25 29 34 37 41 47 43 45 49 53 51 43 46 45
22 20 17 20 19 18 17 17 19 20 22 23 24 25 21 24 28 28 28 30 32 34 35 37 37 42 44 45 49 50 48 45
17 15 16 18 20 17 16 16 16 15 20 24 26 25 25 24 25 28 29 27 28 38 37 40 42 42 48 48 46 48 45 43
9 10 11 12 16 16 16 17 16 15 20 23 22 21 23 21 22 22 26 28 28 38 37 37 42 42 45 46 50 43 42 39
7 7 12 14 15 15 9 7 9 12 17 22 24 24 24 24 24 26 27 27 31 35 35 41 39 44 45 47 47 41 40 38
9 9 9 8 7 7 7 11 15 18 21 23 25 25 26 26 28 28 26 27 32 35 34 40 41 46 48 49 43 40 40 33
5 7 6 10 12 14 17 18 20 25 27 30 32 30 33 30 29 27 26 30 34 36 42 43 45 52 49 36 36 42 33 30
11 11 11 15 16 19 21 22 25 28 31 33 33 33 31 28 28 27 29 33 37 41 46 49 52 53 44 36 42 32 27 29
15 16 19 19 19 22 24 26 28 30 33 33 34 31 29 27 29 32 35 37 44 39 45 51 58 47 38 42 38 28 27 31
20 19 19 20 21 22 24 27 28 31 29 29 30 26 28 28 30 34 37 39 41 45 50 55 48 45 39 43 30 27 31 33
20 20 18 20 23 24 27 31 33 32 28 26 26 27 27 29 33 37 46 51 50 52 62 49 45 41 43 36 25 31 34 35
15 16 20 24 27 29 29 28 25 25 26 26 26 27 29 31 36 41 45 43 47 45 48 44 44 42 41 28 29 34 35 33
Wind_Direction
138 140 149 159 159 160 163 158 159 160 161 150 152 166 184 230 280 290 297 313 309 300 305 307 302 300 314 322 326 327 323 319
156 150 155 167 172 173 176 174 171 173 166 164 190 208 217 244 261 270 272 287 283 289 292 298 297 306 314 319 317 317 321 319
169 168 160 164 186 195 201 201 211 231 245 239 236 243 251 255 254 254 257 273 283 285 287 296 303 302 303 305 309 311 316 322
179 177 196 204 226 219 234 242 240 246 248 261 262 265 265 275 276 265 259 268 279 283 284 286 290 295 297 299 303 306 309 307
210 212 208 204 212 226 231 243 250 250 259 271 277 285 278 273 269 254 252 260 267 273 280 285 288 290 291 292 299 306 316 308
235 236 240 240 230 238 244 254 261 270 276 278 281 276 274 268 262 251 251 257 266 274 280 285 289 290 292 296 302 305 309 314
248 247 244 244 243 245 254 261 268 267 263 275 275 277 270 272 264 264 264 268 272 276 281 285 286 289 295 303 298 311 309 315
250 249 253 254 251 255 254 258 263 270 256 259 280 283 278 277 268 269 270 272 277 284 290 286 281 297 300 305 311 308 315 317
257 262 253 250 254 253 259 263 283 273 259 258 278 278 281 274 278 279 285 289 293 299 308 308 312 308 310 310 311 315 318 313
243 257 254 249 252 262 263 277 278 271 272 273 282 282 285 284 281 286 286 289 297 293 297 304 310 310 309 311 316 314 312 319
265 247 259 253 251 261 262 268 275 273 271 272 281 293 292 287 283 289 295 299 293 293 294 302 306 304 310 313 312 314 319 319
259 233 260 253 231 230 239 263 272 272 276 275 275 277 278 277 289 293 300 304 296 304 302 302 302 304 311 318 310 316 319 312
257 233 238 240 247 261 286 283 291 279 278 281 279 281 283 285 286 291 306 302 299 298 296 300 304 305 310 309 310 320 315 305
234 270 252 246 255 269 272 278 282 285 285 287 289 286 287 293 296 300 301 298 296 297 297 298 301 302 295 303 319 315 303 300
261 281 261 257 267 276 276 279 282 283 284 283 287 286 294 295 294 294 294 297 295 290 290 298 297 299 290 313 316 302 297 293
258 255 252 254 263 271 273 275 282 283 280 282 286 286 289 287 288 291 293 292 291 290 299 295 289 285 308 313 307 297 295 297
258 257 259 265 271 276 276 278 278 284 283 278 275 276 281 282 285 287 284 281 282 285 288 287 294 299 309 308 295 294 293 301
254 260 264 265 272 277 282 286 289 292 292 285 280 279 283 286 286 289 287 278 280 279 284 284 298 308 306 298 291 289 295 301
253 266 274 279 285 290 290 291 293 293 291 288 285 286 284 287 285 283 273 278 284 308 294 299 303 305 300 288 285 290 297 297